EHI
0 0 0 0 0 0 0 0 0 0 0 0 0 0 0 0 0 0 0 0 0 0 0 0 0 0 0 0 0 0 0 0 0 0 0 0 0 0 0 0 0 0 0 0
0 0 0 0 0 0 0 0 0 0 0 0 0 0 0 0 0 0 0 0 0 0 0 0 0 0 0 0 0 0 0 0 0 0 0 0 0 0 0 0 0 0 0 0
0 0 0 0 0 0 0 0 0 0 0 0 0 0 0 0 0 0 0 0 0 0 0 0 0 0 0 0 0 0 0 0 0 0 0 0 0 0 0 0 0 0 0 0
0 0 0 0 0 0 0 0 0 0 0 0 0 0 0 0 0 0 0 0 0 0 0 0 0 0 0 0 0 0 0 0 0 0 0 0 0 0 0 0 0 0 0 0
0 0 0 0 0 0 0 0 0 0 0 0 0 0 0 0 0 0 0 0 0 0 0 0 0 0 0 0 0 0 0 0 0 0 0 0 0 0 0 0 0 0 0 0
0 0 0 0 0 0 0 0 0 0 0 0 0 0 0 0 0 0 0 0 0 0 0 0 0 0 0 0 0 0 0 0 0 0 0 0 0 0 0 0 0 0 0 0
0 0 0 0 0 0 0 0 0 0 0 0 0 0 0 0 0 0 0 0 0 0 0 0 0 0 0 0 0 0 0 0 0 0 0 0 0 0 0 0 0 0 0 0
0 0 0 0 0 0 0 0 0 0 0 0 0 0 0 0 0 0 0 0 0 0 0 0 0 0 0 0 0 0 0 0 0 0 0 0 0 0 0 0 0 0 0 0
0 0 0 0 0 0 0 0 0 0 0 0 0 0 0 0 0 0 0 0 0 0 0 0 0 0 0 0 0 0 0 0 0 0 0 0 0 0 0 0 0 0 0 0
0 0 0 0 0 0 0 0 0 0 0 0 0 0 0 0 0 0 0 0 0 0 0 0 0 0 0 0 0 0 0 0 0 0 0 0 0 0 0 0 0 0 0 0
0 0 0 0 0 0 0 0 0 0 0 0 0 0 0 0 0 0 0 0 0 0 0 0 0 0 0 0 0 0 0 0 0 0 0 0 0 0 0 0 0 0 0 0
0 0 0 0 0 0 0 0 0 0 0 0 0 0 0 0 0 0 0 0 0 0 0 0 0 0 0 0 0 0 0 0 0 0 0 0 0 0 0 0 0 0 0 0
0 0 0 0 0 0 0 0 0 0 0 0 0 0 0 0 0 0 0 0 0 0 0 0 0 0 0 0 0 0 0 0 0 0 0 0 0 0 0 0 0 0 0 0
0 0 0 0 0 0 0 0 0 0 0 0 0 0 0 0 0 0 0 0 0 0 0 0 0 0 0 0 0 0 0 0 0 0 0 0 0 0 0 0 0 0 0 0
0 0 0 0 0 0 0 0 0 0 0 0 0 0 0 0 0 0 0 0 0 0 0 0 0 0 0 0 0 0 0 0 0 0 0 0 0 0 0 0 0 0 0 0
0 0 0 0 0 0 0 0 0 0 0 0 0 0 0 0 0 0 0 0 0 0 0 0 0 0 0 0 0 0 0 0 0 0 0 0 0 0 0 0 0 0 0 0
0 0 0 0 0 0 0 0 0 0 0 0 0 0 0 0 0 0 0 0 0 0 0 0 0 0 0 0 0 0 0 0 0 0 0 0 0 0 0 0 0 0 0 0
0 0 0 0 0 0 0 0 0 0 0 0 0 0 0 0 0 0 0 0 0 0 0 0 0 0 0 0 0 0 0 0 0 0 0 0 0 0 0 0 0 0 0 0
0 0 0 0 0 0 0 0 0 0 0 0 0 0 0 0 0 0 0 0 0 0 0 0 0 0 0 0 0 0 0 0 0 0 0 0 0 0 0 0 0 0 0 0
0 0 0 0 0 0 0 0 0 0 0 0 0 0 0 0 0 0 0 0 0 0 0 0 0 0 0 0 0 0 0 0 0 0 0 0 0 0 0 0 0 0 0 0
0 0 0 0 0 0 0 0 0 0 0 0 0 0 0 0 0 0 0 0 0 0 0 0 0 0 0 0 0 0 0 0 0 0 0 0 0 0 0 0 0 0 0 0
0 0 0 0 0 0 0 0 0 0 0 0 0 0 0 0 0 0 0 0 0 0 0 0 0 0 0 0 0 0 0 0 0 0 0 0 0 0 0 0 0 0 0 0
0 0 0 0 0 0 0 0 0 0 0 0 0 0 0 0 0 0 0 0 0 0 0 0 0 0 0 0 0 0 0 0 0 0 0 0 0 0 0 0 0 0 0 0
0 0 0 0 0 0 0 0 0 0 0 0 0 0 0 0 0 0 0 0 0 0 0 0 0 0 0 0 0 0 0 0 0 0 0 0 0 0 0 0 0 0 0 0
0 0 0 0 0 0 0 0 0 0 0 0 0 0 0 0 0 0 0 0 0 0 0 0 0 0 0 0 0 0 0 0 0 0 0 0 0 0 0 0 0 0 0 0
0 0 0 0 0 0 0 0 0 0 0 0 0 0 0 0 0 0 0 0 0 0 0 0 0 0 0 0 0 0 0 0 0 0 0 0 0 0 0 0 0 0 0 0
0 0 0 0 0 0 0 0 0 0 0 0 0 0 0 0 0 0 0 0 0 0 0 0 0 0 0 0 0 0 0 0 0 0 0 0 0 0 0 0 0 0 0 0
Wind_Speed
7 7 7 8 8 8 9 10 10 9 8 6 5 3 1 1 2 3 5 6 7 8 8 8 7 7 7 7 7 7 7 5 4 3 2 2 1 1 0 1 2 2 2 2
11 9 10 11 10 10 10 10 11 10 8 6 5 3 2 1 2 3 3 5 6 8 8 9 9 8 7 7 7 7 7 6 4 3 3 2 1 1 1 1 1 1 1 2
11 10 11 11 8 7 7 7 8 8 5 4 4 3 2 2 0 2 3 3 4 5 7 8 9 9 8 8 7 7 7 6 6 4 4 3 2 2 1 1 0 1 1 1
9 11 12 5 1 2 4 6 6 5 4 4 4 3 1 1 1 1 2 3 3 4 5 7 8 9 9 8 8 7 7 7 6 5 4 3 3 2 1 1 1 1 1 0
8 10 9 5 1 2 4 4 4 4 4 5 6 5 0 3 2 1 0 2 3 3 4 5 7 8 9 9 8 8 7 7 7 7 5 4 4 3 2 1 1 1 1 1
7 10 9 3 3 3 4 3 4 4 5 6 6 4 3 5 3 2 1 1 2 2 3 4 5 6 8 8 8 8 8 7 7 7 6 5 5 4 3 3 2 2 2 2
9 10 7 3 3 2 3 3 6 6 7 7 5 5 5 5 3 2 1 1 1 2 2 3 4 5 7 7 8 8 8 7 6 6 6 6 4 3 3 3 3 2 2 2
7 8 4 5 3 3 5 6 7 7 8 8 7 6 6 5 3 2 1 1 1 2 2 2 4 5 6 6 6 7 8 7 6 6 6 6 5 4 3 3 3 3 2 2
5 3 3 4 5 6 7 7 8 8 8 8 8 7 6 5 4 3 2 2 2 2 2 3 4 5 6 6 6 8 8 7 7 6 5 5 5 5 3 3 2 2 2 2
9 6 5 5 6 6 7 7 8 8 9 9 9 9 7 5 4 3 3 2 3 3 3 4 4 4 5 6 7 8 8 8 7 7 6 5 4 3 3 2 1 1 1 1
12 10 8 5 5 6 7 8 9 9 9 9 9 9 8 7 5 4 3 3 3 4 4 5 4 5 5 5 7 8 9 8 7 6 6 5 4 2 3 2 2 2 1 1
10 9 9 8 7 8 8 9 9 9 9 9 8 9 9 8 6 5 4 4 3 4 4 5 5 5 5 6 6 8 8 8 6 6 6 6 7 5 6 5 6 7 6 5
10 11 9 9 9 8 8 9 10 10 9 9 8 8 9 8 7 6 5 5 5 5 5 5 5 5 5 6 7 7 7 7 6 6 7 7 7 7 5 3 5 6 6 7
8 8 9 8 8 8 9 10 10 10 9 9 8 8 8 8 8 8 7 6 5 5 5 5 5 6 6 6 6 7 6 7 7 6 6 7 7 7 7 7 5 3 3 5
8 7 8 9 8 8 8 9 10 9 9 9 8 8 8 9 9 8 8 7 6 5 5 5 5 5 5 5 6 7 5 4 5 6 6 6 6 6 6 7 6 6 5 4
8 8 8 8 8 8 8 9 9 10 9 10 9 9 10 9 9 9 7 7 6 6 5 5 5 4 4 4 5 4 4 7 7 5 5 5 6 6 6 6 7 6 6 5
8 8 8 8 8 8 8 8 9 9 9 10 10 10 10 10 10 8 8 7 7 6 5 4 4 3 3 4 4 3 4 5 8 6 5 5 5 6 6 6 6 6 5 6
7 7 8 8 8 8 8 8 8 9 9 10 10 10 10 10 10 9 8 8 7 6 5 3 2 2 3 4 4 3 4 4 5 5 4 4 4 4 5 6 7 7 5 6
7 8 8 8 8 8 8 8 8 8 9 9 10 10 10 10 9 9 9 7 7 6 4 2 3 3 2 3 3 3 4 5 5 5 5 6 5 4 5 5 6 6 6 6
8 8 8 8 8 7 8 8 8 9 9 9 9 9 9 9 9 9 9 7 5 4 3 2 2 2 2 3 3 3 4 4 5 5 5 5 5 5 5 6 6 6 6 6
8 8 7 7 8 8 8 9 8 8 8 8 8 8 9 9 9 8 7 6 4 3 2 3 2 2 2 2 3 2 3 4 4 4 5 6 5 5 5 6 6 6 6 6
7 8 8 8 8 8 8 8 8 8 8 8 8 8 8 8 8 8 7 5 3 3 2 2 2 2 2 2 2 2 3 3 4 4 5 5 6 6 6 6 6 6 6 6
8 9 9 9 9 9 10 9 8 8 7 7 7 7 7 6 5 6 6 4 2 3 3 2 3 3 4 2 2 2 3 3 4 4 4 5 5 6 6 6 6 6 6 6
9 9 10 10 10 10 10 9 8 7 6 6 6 6 6 5 5 4 3 4 4 3 2 2 3 4 4 2 3 3 3 3 3 4 4 4 5 5 5 5 5 5 6 7
10 10 10 10 9 8 8 8 8 7 6 5 5 5 5 4 4 4 3 3 2 2 2 3 4 4 2 2 2 3 3 3 4 4 4 4 4 5 5 5 5 6 6 6
9 8 8 9 8 6 6 6 5 4 4 4 4 3 4 3 3 3 3 3 2 2 2 1 2 3 2 2 2 2 2 3 4 4 4 4 5 5 5 6 7 6 6 6
10 9 7 6 6 5 5 5 5 4 4 4 4 3 3 4 3 3 3 3 2 1 1 1 2 2 1 1 1 2 2 3 3 4 4 4 5 5 6 7 6 6 6 6
Wind_Direction
291 283 277 272 267 258 259 269 278 291 299 310 316 317 302 199 184 175 174 173 172 174 179 175 179 183 182 175 173 171 169 185 194 195 164 153 157 180 41 338 334 9 16 20
285 276 275 272 263 258 260 265 271 277 282 298 312 342 334 298 177 176 184 184 180 181 182 179 183 186 181 177 176 172 174 177 166 175 153 157 175 135 82 323 338 13 16 17
291 289 282 272 270 264 266 274 277 277 294 322 323 332 332 332 217 186 189 184 188 192 187 185 186 182 178 176 174 175 174 166 161 172 163 171 166 136 175 214 192 339 346 21
284 284 275 284 309 295 285 288 290 295 318 330 327 310 320 352 304 227 183 172 189 204 191 186 185 176 172 169 171 175 173 164 162 164 166 167 160 167 207 192 167 216 249 262
276 280 277 277 293 304 295 296 315 326 350 354 337 304 85 32 5 351 152 167 178 202 202 192 184 173 168 170 172 173 170 167 166 167 168 169 178 186 191 196 208 215 221 222
269 277 284 321 48 19 306 291 20 8 0 355 344 330 353 6 10 13 37 125 162 194 210 191 178 166 169 175 175 175 171 171 170 164 163 173 185 187 184 187 204 213 221 221
258 269 278 27 47 338 288 27 30 20 9 359 350 351 349 348 3 11 25 92 162 192 207 187 171 167 177 181 181 171 162 162 161 160 167 174 177 180 187 187 195 211 223 215
260 264 277 50 9 358 9 16 12 12 7 358 346 344 345 346 346 340 326 215 204 210 207 186 175 176 187 188 168 151 151 159 166 167 176 172 170 185 194 189 194 209 215 216
300 315 23 25 20 7 359 355 360 357 349 343 334 326 327 330 326 312 279 234 214 226 218 203 193 188 193 179 156 151 156 164 169 172 175 166 168 180 188 192 193 202 194 188
298 302 329 345 353 355 356 354 349 343 339 337 329 323 319 313 303 296 283 251 214 218 223 220 209 202 198 170 160 161 168 172 177 179 173 164 155 157 156 162 174 185 168 157
289 298 307 314 341 344 350 345 336 330 326 328 323 317 315 309 300 288 278 260 227 221 225 228 215 205 194 176 174 178 179 178 182 180 168 153 130 103 132 112 143 152 125 97
285 306 309 322 340 347 339 328 324 322 320 319 316 314 314 311 307 297 284 271 251 236 227 231 223 211 193 186 190 191 188 184 181 172 162 153 140 116 68 100 105 103 103 110
298 310 310 320 327 327 318 318 318 314 312 312 314 312 311 308 307 302 288 277 261 248 237 235 230 217 200 193 199 200 193 182 173 170 167 163 159 155 147 108 83 91 104 111
314 315 307 314 316 320 318 316 311 307 308 312 314 315 314 311 307 303 295 285 275 260 246 239 231 221 201 195 201 205 197 185 172 169 168 169 168 167 164 163 162 150 129 137
305 303 304 314 318 317 318 316 313 313 316 317 319 321 319 315 308 301 300 296 287 270 253 245 238 227 202 198 202 203 193 181 173 167 166 168 166 165 165 166 159 153 149 158
305 301 303 305 306 309 311 311 310 311 316 318 320 322 320 314 308 304 303 300 288 273 261 252 246 229 201 197 202 197 187 181 166 164 168 168 168 167 166 164 160 159 160 160
294 295 300 298 299 302 304 306 308 311 314 315 316 317 313 310 308 307 305 301 295 285 272 256 248 232 202 197 197 190 178 175 169 171 174 173 173 171 166 160 158 156 152 155
286 288 292 296 298 299 301 305 310 312 312 313 312 311 309 307 306 305 303 300 297 293 281 269 252 243 222 202 196 185 176 172 174 172 165 168 170 165 159 154 152 147 145 149
298 299 298 296 299 301 304 307 310 311 311 310 310 309 308 307 307 306 304 299 293 286 283 281 259 235 234 216 197 181 175 175 177 166 157 158 163 159 154 153 151 150 150 151
297 296 297 302 305 305 307 307 307 307 308 308 308 308 307 308 309 306 303 295 287 282 288 287 264 242 231 217 194 190 181 180 177 167 158 160 164 162 157 153 150 149 148 151
295 294 297 300 301 301 300 300 299 300 303 304 304 306 306 306 305 303 300 297 300 309 297 266 248 240 227 219 205 203 185 180 176 173 167 165 162 161 159 156 153 153 153 153
291 293 296 297 297 297 298 298 297 299 300 299 300 302 304 304 306 306 302 297 299 304 298 261 242 231 236 233 220 203 188 182 180 175 171 167 165 164 164 163 161 158 156 154
290 292 293 293 292 292 292 293 295 296 296 299 303 303 300 297 295 294 295 300 299 293 295 266 244 225 224 224 211 198 188 184 180 175 170 166 163 162 162 163 160 154 150 146
284 285 286 288 288 287 289 294 296 295 295 296 296 297 298 297 293 288 287 295 299 291 287 244 228 216 213 219 207 199 188 174 170 172 168 162 159 158 156 153 149 145 142 139
282 283 286 289 288 287 290 294 295 295 294 290 292 297 299 295 295 303 306 304 294 283 277 241 226 211 214 229 213 189 172 164 157 153 151 149 148 146 143 142 141 138 137 137
285 283 280 280 281 281 283 282 281 282 287 289 290 294 299 299 299 298 300 295 281 278 281 266 214 200 209 216 192 168 153 147 147 149 148 144 142 141 141 144 143 141 139 137
281 278 276 274 271 270 275 278 279 281 286 287 288 291 294 298 298 298 300 295 279 251 240 227 202 198 206 203 168 159 158 159 155 152 147 146 146 146 147 145 139 134 132 134